TimeMST,TemperatureF,Dew PointF,Humidity,Sea Level PressureIn,VisibilityMPH,Wind Direction,Wind SpeedMPH,Gust SpeedMPH,PrecipitationIn,Events,Conditions,WindDirDegrees,DateUTC
12:58 AM,48.0,48.0,100,30.16,10.0,NW,3.5,-,N/A,,Clear,310,2013-11-25 07:58:00
1:58 AM,46.4,-9999,N/A,30.16,10.0,North,2.3,-,N/A,,Clear,350,2013-11-25 08:58:00
2:58 AM,46.4,-9999,N/A,30.16,10.0,North,1.2,-,N/A,,Clear,10,2013-11-25 09:58:00
3:58 AM,44.6,-9999,N/A,30.16,10.0,NNW,4.6,-,N/A,,Clear,330,2013-11-25 10:58:00
4:58 AM,44.6,41.0,87,30.15,10.0,NW,3.5,-,N/A,,Clear,320,2013-11-25 11:58:00
5:58 AM,42.8,42.8,100,30.15,10.0,North,3.5,-,N/A,,Clear,360,2013-11-25 12:58:00
6:58 AM,42.8,42.8,100,30.16,10.0,Calm,Calm,-,N/A,,Clear,0,2013-11-25 13:58:00
7:58 AM,44.6,41.0,87,30.19,10.0,NNW,3.5,-,N/A,,Clear,330,2013-11-25 14:58:00
8:58 AM,50.0,45.1,83,30.20,10.0,North,1.2,-,N/A,,Clear,360,2013-11-25 15:58:00
9:58 AM,51.6,43.5,74,30.21,10.0,ENE,4.6,-,N/A,,Clear,60,2013-11-25 16:58:00
10:58 AM,54.1,44.1,69,30.22,10.0,Variable,3.5,-,N/A,,Clear,0,2013-11-25 17:58:00
11:58 AM,56.3,43.7,63,30.19,10.0,Calm,Calm,-,N/A,,Clear,0,2013-11-25 18:58:00
12:58 PM,58.5,42.6,56,30.17,10.0,SSW,4.6,-,N/A,,Clear,210,2013-11-25 19:58:00
1:58 PM,60.4,43.5,54,30.15,10.0,North,2.3,-,N/A,,Clear,350,2013-11-25 20:58:00
2:58 PM,60.6,45.5,57,30.15,10.0,WSW,3.5,-,N/A,,Clear,250,2013-11-25 21:58:00
3:58 PM,61.3,45.1,55,30.15,10.0,SSW,4.6,-,N/A,,Clear,200,2013-11-25 22:58:00
4:58 PM,60.6,45.5,57,30.14,10.0,SW,6.9,-,N/A,,Clear,230,2013-11-25 23:58:00
5:58 PM,59.0,46.0,62,30.16,10.0,SSW,5.8,-,N/A,,Clear,200,2013-11-26 00:58:00
6:58 PM,57.6,45.5,64,30.17,10.0,South,3.5,-,N/A,,Clear,180,2013-11-26 01:58:00
7:58 PM,56.5,47.3,71,30.19,10.0,Calm,Calm,-,N/A,,Clear,0,2013-11-26 02:58:00
8:58 PM,52.2,51.1,96,30.20,10.0,North,4.6,-,N/A,,Clear,350,2013-11-26 03:58:00
9:58 PM,51.1,49.8,95,30.21,10.0,NNW,5.8,-,N/A,,Clear,340,2013-11-26 04:58:00
10:58 PM,50.2,48.9,95,30.22,10.0,NNW,5.8,-,N/A,,Clear,340,2013-11-26 05:58:00
11:58 PM,49.5,49.3,99,30.22,10.0,NE,3.5,-,N/A,,Clear,50,2013-11-26 06:58:00